Year,Month,Day,Hour,Minute,Value (Times are PST for windspeed in km/hr)
2022,10,10,09,11,0.00
2022,10,10,09,12,0.00
2022,10,10,09,13,0.00
2022,10,10,09,14,0.00
2022,10,10,09,15,0.00
2022,10,10,09,16,0.00
2022,10,10,09,17,0.00
2022,10,10,09,18,0.00
2022,10,10,09,19,0.00
2022,10,10,09,20,0.00
2022,10,10,09,21,0.00
2022,10,10,09,22,0.00
2022,10,10,09,23,0.00
2022,10,10,09,24,0.00
2022,10,10,09,25,0.00
2022,10,10,09,26,0.00
2022,10,10,09,27,0.00
2022,10,10,09,28,0.00
2022,10,10,09,29,0.00
2022,10,10,09,30,0.00
2022,10,10,09,31,0.00
2022,10,10,09,32,0.00
2022,10,10,09,33,0.00
2022,10,10,09,34,0.00
2022,10,10,09,35,0.00
2022,10,10,09,36,0.00
2022,10,10,09,37,0.00
2022,10,10,09,38,0.00
2022,10,10,09,39,0.00
2022,10,10,09,40,0.00
2022,10,10,09,41,0.00
2022,10,10,09,42,0.00
2022,10,10,09,43,0.00
2022,10,10,09,44,0.00
2022,10,10,09,45,0.00
2022,10,10,09,46,0.00
2022,10,10,09,47,0.00
2022,10,10,09,48,0.00
2022,10,10,09,49,0.00
2022,10,10,09,50,0.00
2022,10,10,09,51,0.00
2022,10,10,09,52,0.00
2022,10,10,09,53,0.00
2022,10,10,09,54,0.00
2022,10,10,09,55,0.00
2022,10,10,09,56,0.00
2022,10,10,09,57,0.00
2022,10,10,09,58,0.00
2022,10,10,09,59,0.00
2022,10,10,10,00,0.00
2022,10,10,10,01,0.00
2022,10,10,10,02,0.00
2022,10,10,10,03,0.00
2022,10,10,10,04,0.00
2022,10,10,10,05,0.00
2022,10,10,10,06,0.00
2022,10,10,10,07,0.00
2022,10,10,10,08,0.00
2022,10,10,10,09,0.00
2022,10,10,10,10,0.00
2022,10,10,10,11,0.00
2022,10,10,10,12,0.00
2022,10,10,10,13,0.00
2022,10,10,10,14,0.00
2022,10,10,10,15,0.20
2022,10,10,10,16,0.00
2022,10,10,10,17,0.00
2022,10,10,10,18,0.00
2022,10,10,10,19,0.00
2022,10,10,10,20,0.00
2022,10,10,10,21,0.00
2022,10,10,10,22,0.00
2022,10,10,10,23,0.00
2022,10,10,10,24,0.00
2022,10,10,10,25,0.00
2022,10,10,10,26,0.00
2022,10,10,10,27,0.00
2022,10,10,10,28,0.00
2022,10,10,10,29,0.00
2022,10,10,10,30,0.00
2022,10,10,10,31,0.00
2022,10,10,10,32,0.00
2022,10,10,10,33,0.00
2022,10,10,10,34,0.00
2022,10,10,10,35,0.80
2022,10,10,10,36,0.10
2022,10,10,10,37,0.10
2022,10,10,10,38,1.30
2022,10,10,10,39,0.00
2022,10,10,10,40,0.00
2022,10,10,10,41,0.80
2022,10,10,10,42,0.00
2022,10,10,10,43,0.80
2022,10,10,10,44,0.00
2022,10,10,10,45,0.00
2022,10,10,10,46,0.00
2022,10,10,10,47,0.00
2022,10,10,10,48,0.00
2022,10,10,10,49,0.00
2022,10,10,10,50,0.00
2022,10,10,10,51,0.00
2022,10,10,10,52,0.00
2022,10,10,10,53,0.00
2022,10,10,10,54,0.00
2022,10,10,10,55,0.00
2022,10,10,10,56,0.00
2022,10,10,10,57,0.00
2022,10,10,10,58,0.00
2022,10,10,10,59,0.00
2022,10,10,11,00,0.00
2022,10,10,11,01,0.00
2022,10,10,11,02,0.20
2022,10,10,11,03,0.40
2022,10,10,11,04,0.10
2022,10,10,11,05,0.00
2022,10,10,11,06,0.00
2022,10,10,11,07,0.00
2022,10,10,11,08,0.00
2022,10,10,11,09,0.00
2022,10,10,11,10,0.00
2022,10,10,11,11,0.10
2022,10,10,11,12,0.00
2022,10,10,11,13,0.00
2022,10,10,11,14,0.00
2022,10,10,11,15,0.10
2022,10,10,11,16,0.10
2022,10,10,11,17,0.00
2022,10,10,11,18,0.00
2022,10,10,11,19,0.00
2022,10,10,11,20,0.00
2022,10,10,11,21,0.00
2022,10,10,11,22,0.00
2022,10,10,11,23,0.00
2022,10,10,11,24,0.30
2022,10,10,11,25,0.00
2022,10,10,11,26,0.40
2022,10,10,11,27,1.50
2022,10,10,11,28,0.00
2022,10,10,11,29,0.00
2022,10,10,11,30,0.00
2022,10,10,11,31,0.00
2022,10,10,11,32,0.00
2022,10,10,11,33,0.10
2022,10,10,11,34,0.10
2022,10,10,11,35,0.00
2022,10,10,11,36,0.00
2022,10,10,11,37,0.00
2022,10,10,11,38,0.00
2022,10,10,11,39,0.30
2022,10,10,11,40,0.20
2022,10,10,11,41,0.90
2022,10,10,11,42,0.20
2022,10,10,11,43,0.30
2022,10,10,11,44,0.90
2022,10,10,11,45,4.80
2022,10,10,11,46,2.90
2022,10,10,11,47,0.80
2022,10,10,11,48,8.60
2022,10,10,11,49,4.80
2022,10,10,11,50,2.00
2022,10,10,11,51,10.60
2022,10,10,11,52,2.80
2022,10,10,11,53,0.10
2022,10,10,11,54,0.00
2022,10,10,11,55,0.10
2022,10,10,11,56,0.00
2022,10,10,11,57,0.00
2022,10,10,11,58,0.00
2022,10,10,11,59,0.40
2022,10,10,12,00,0.50
2022,10,10,12,01,0.00
2022,10,10,12,02,0.00
2022,10,10,12,03,0.00
2022,10,10,12,04,0.00
2022,10,10,12,05,0.00
2022,10,10,12,06,0.10
2022,10,10,12,07,4.00
2022,10,10,12,08,0.00
2022,10,10,12,09,1.00
2022,10,10,12,10,0.00
2022,10,10,12,11,0.00
2022,10,10,12,12,0.10
2022,10,10,12,13,0.10
2022,10,10,12,14,0.00
2022,10,10,12,15,0.00
2022,10,10,12,16,0.20
2022,10,10,12,17,0.00
2022,10,10,12,18,0.00
2022,10,10,12,19,0.00
2022,10,10,12,20,0.00
2022,10,10,12,21,0.00
2022,10,10,12,22,0.00
2022,10,10,12,23,0.40
2022,10,10,12,24,1.20
2022,10,10,12,25,0.00
2022,10,10,12,26,0.00
2022,10,10,12,27,0.00
2022,10,10,12,28,0.00
2022,10,10,12,29,0.00
2022,10,10,12,30,0.00
2022,10,10,12,31,0.20
2022,10,10,12,32,0.70
2022,10,10,12,33,8.00
2022,10,10,12,34,10.50
2022,10,10,12,35,2.10
2022,10,10,12,36,1.90
2022,10,10,12,37,2.70
2022,10,10,12,38,1.10
2022,10,10,12,39,3.00
2022,10,10,12,40,2.30
2022,10,10,12,41,9.20
2022,10,10,12,42,13.00
2022,10,10,12,43,9.00
2022,10,10,12,44,26.40
2022,10,10,12,45,11.40
2022,10,10,12,46,3.80
2022,10,10,12,47,3.60
2022,10,10,12,48,17.00
2022,10,10,12,49,36.20
2022,10,10,12,50,25.70
2022,10,10,12,51,31.70
2022,10,10,12,52,28.40
2022,10,10,12,53,9.10
2022,10,10,12,54,7.60
2022,10,10,12,55,6.00
2022,10,10,12,56,12.50
2022,10,10,12,57,16.20
2022,10,10,12,58,5.00
2022,10,10,12,59,1.00
2022,10,10,13,00,0.20
2022,10,10,13,01,0.10
2022,10,10,13,02,0.10
2022,10,10,13,03,0.50
2022,10,10,13,04,0.00
2022,10,10,13,05,0.80
2022,10,10,13,06,6.20
2022,10,10,13,07,8.10
2022,10,10,13,08,0.00
2022,10,10,13,09,0.10
2022,10,10,13,10,0.60
2022,10,10,13,11,0.10
2022,10,10,13,12,0.00
2022,10,10,13,13,0.00
2022,10,10,13,14,0.00
2022,10,10,13,15,0.00
2022,10,10,13,16,0.00
2022,10,10,13,17,0.30
2022,10,10,13,18,0.00
2022,10,10,13,19,0.00
2022,10,10,13,20,0.00
2022,10,10,13,21,0.00
2022,10,10,13,22,2.60
2022,10,10,13,23,1.70
2022,10,10,13,24,0.60
2022,10,10,13,25,0.00
2022,10,10,13,26,0.10
2022,10,10,13,27,0.00
2022,10,10,13,28,0.30
2022,10,10,13,29,0.00
2022,10,10,13,30,0.80
2022,10,10,13,31,0.20
2022,10,10,13,32,0.20
2022,10,10,13,33,0.30
2022,10,10,13,34,0.10
2022,10,10,13,35,1.70
2022,10,10,13,36,0.00
2022,10,10,13,37,0.10
2022,10,10,13,38,0.10
2022,10,10,13,39,0.40
2022,10,10,13,40,0.10
2022,10,10,13,41,0.00
2022,10,10,13,42,0.10
2022,10,10,13,43,0.00
2022,10,10,13,44,0.20
2022,10,10,13,45,0.00
2022,10,10,13,46,0.00
2022,10,10,13,47,0.00
2022,10,10,13,48,0.00
2022,10,10,13,49,0.40
2022,10,10,13,50,1.00
2022,10,10,13,51,0.10
2022,10,10,13,52,0.10
2022,10,10,13,53,0.20
2022,10,10,13,54,0.50
2022,10,10,13,55,0.10
2022,10,10,13,56,0.00
2022,10,10,13,57,0.00
2022,10,10,13,58,0.00
2022,10,10,13,59,0.60
2022,10,10,14,00,0.50
2022,10,10,14,01,0.10
2022,10,10,14,02,0.10
2022,10,10,14,03,0.00
2022,10,10,14,04,0.00
2022,10,10,14,05,0.00
2022,10,10,14,06,0.00
2022,10,10,14,07,0.00
2022,10,10,14,08,0.00
2022,10,10,14,09,0.00
2022,10,10,14,10,0.00
2022,10,10,14,11,0.00
2022,10,10,14,12,0.30
2022,10,10,14,13,0.10
2022,10,10,14,14,0.00
2022,10,10,14,15,0.00
2022,10,10,14,16,0.20
2022,10,10,14,17,0.20
2022,10,10,14,18,0.00
2022,10,10,14,19,0.00
2022,10,10,14,20,0.00
2022,10,10,14,21,0.30
2022,10,10,14,22,0.90
2022,10,10,14,23,0.00
2022,10,10,14,24,0.30
2022,10,10,14,25,0.00
2022,10,10,14,26,0.00
2022,10,10,14,27,0.20
2022,10,10,14,28,1.00
2022,10,10,14,29,0.20
2022,10,10,14,30,0.00
2022,10,10,14,31,0.00
2022,10,10,14,32,0.00
2022,10,10,14,33,0.20
2022,10,10,14,34,0.00
2022,10,10,14,35,0.00
2022,10,10,14,36,0.00
2022,10,10,14,37,0.00
2022,10,10,14,38,0.00
2022,10,10,14,39,0.00
2022,10,10,14,40,0.00
2022,10,10,14,41,0.00
2022,10,10,14,42,0.00
2022,10,10,14,43,0.00
2022,10,10,14,44,0.10
2022,10,10,14,45,0.20
2022,10,10,14,46,0.00
2022,10,10,14,47,0.00
2022,10,10,14,48,0.30
2022,10,10,14,49,0.10
2022,10,10,14,50,0.00
2022,10,10,14,51,0.00
2022,10,10,14,52,0.10
2022,10,10,14,53,0.00
2022,10,10,14,54,0.00
2022,10,10,14,55,0.00
2022,10,10,14,56,0.40
2022,10,10,14,57,0.00
2022,10,10,14,58,0.30
2022,10,10,14,59,0.00
2022,10,10,15,00,0.00
2022,10,10,15,01,5.20
2022,10,10,15,02,0.00
2022,10,10,15,03,0.00
2022,10,10,15,04,0.00
2022,10,10,15,05,0.00
2022,10,10,15,06,0.00
2022,10,10,15,07,1.40
2022,10,10,15,08,0.20
2022,10,10,15,09,4.00
2022,10,10,15,10,2.90
2022,10,10,15,11,6.20
2022,10,10,15,12,8.00
2022,10,10,15,13,4.70
2022,10,10,15,14,4.50
2022,10,10,15,15,5.30
2022,10,10,15,16,0.00
2022,10,10,15,17,0.10
2022,10,10,15,18,0.00
2022,10,10,15,19,0.00
2022,10,10,15,20,0.10
2022,10,10,15,21,1.00
2022,10,10,15,22,0.70
2022,10,10,15,23,0.60
2022,10,10,15,24,1.40
2022,10,10,15,25,2.00
2022,10,10,15,26,0.40
2022,10,10,15,27,0.20
2022,10,10,15,28,0.30
2022,10,10,15,29,0.70
2022,10,10,15,30,0.20
2022,10,10,15,31,0.00
2022,10,10,15,32,0.80
2022,10,10,15,33,0.20
2022,10,10,15,34,0.00
2022,10,10,15,35,0.00
2022,10,10,15,36,0.00
2022,10,10,15,37,0.00
2022,10,10,15,38,0.20
2022,10,10,15,39,0.00
2022,10,10,15,40,0.00
2022,10,10,15,41,0.80
2022,10,10,15,42,0.20
2022,10,10,15,43,0.20
2022,10,10,15,44,0.30
2022,10,10,15,45,0.80
2022,10,10,15,46,0.30
2022,10,10,15,47,0.20
2022,10,10,15,48,0.30
2022,10,10,15,49,0.60
2022,10,10,15,50,0.30
2022,10,10,15,51,0.80
2022,10,10,15,52,0.00
2022,10,10,15,53,1.40
2022,10,10,15,54,0.40
2022,10,10,15,55,0.90
2022,10,10,15,56,1.60
2022,10,10,15,57,2.60
2022,10,10,15,58,1.60
2022,10,10,15,59,3.30
2022,10,10,16,00,1.20
2022,10,10,16,01,1.40
2022,10,10,16,02,3.10
2022,10,10,16,03,3.50
2022,10,10,16,04,0.30
2022,10,10,16,05,0.80
2022,10,10,16,06,0.00
2022,10,10,16,07,0.60
2022,10,10,16,08,0.70
2022,10,10,16,09,3.60
2022,10,10,16,10,0.10
2022,10,10,16,11,0.30
2022,10,10,16,12,0.10
2022,10,10,16,13,0.10
2022,10,10,16,14,1.20
2022,10,10,16,15,1.60
2022,10,10,16,16,1.60
2022,10,10,16,17,1.60
2022,10,10,16,18,1.60
2022,10,10,16,19,1.60
2022,10,10,16,20,1.60
2022,10,10,16,21,1.60
2022,10,10,16,22,1.60
2022,10,10,16,23,1.60
2022,10,10,16,24,1.60
